| time (UTC) | temp F | wind direction | speed MPH | gust MPH | rain 1hr in | rain 24hr in | rain mn in | humidity % | barometer mb |
| 20260505002017 | 65 | 203 | 3.0 | 14.0 | 0.00 | 0.00 | 0.00 | 30 | 1017.7 |
| 20260505001037 | 66 | 203 | 3.0 | 11.0 | 0.00 | 0.00 | 0.00 | 30 | 1017.4 |
| 20260505000017 | 66 | 225 | 5.0 | 14.0 | 0.00 | 0.00 | 0.00 | 29 | 1017.8 |
| 20260504235017 | 67 | 225 | 6.0 | 15.0 | 0.00 | 0.01 | 0.00 | 29 | 1018.4 |
| 20260504234017 | 68 | 203 | 5.0 | 15.0 | 0.00 | 0.01 | 0.00 | 29 | 1018.7 |
| 20260504233057 | 67 | 203 | 8.0 | 20.0 | 0.00 | 0.01 | 0.00 | 29 | 1018.3 |
| 20260504232017 | 67 | 225 | 8.0 | 17.0 | 0.00 | 0.01 | 0.00 | 29 | 1018.4 |
| 20260504231017 | 68 | 203 | 8.0 | 17.0 | 0.00 | 0.01 | 0.00 | 30 | 1018.6 |
| 20260504230018 | 67 | 248 | 9.0 | 20.0 | 0.00 | 0.01 | 0.00 | 31 | 1017.9 |
| 20260504225017 | 68 | 225 | 9.0 | 21.0 | 0.00 | 0.01 | 0.00 | 30 | 1018.3 |
| 20260504224017 | 70 | 225 | 7.0 | 19.0 | 0.00 | 0.01 | 0.00 | 30 | 1018.3 |
| 20260504223017 | 69 | 270 | 6.0 | 20.0 | 0.00 | 0.01 | 0.00 | 31 | 1018.6 |
| 20260504222016 | 68 | 248 | 8.0 | 19.0 | 0.00 | 0.01 | 0.00 | 32 | 1018.4 |
| 20260504221016 | 67 | 248 | 10.0 | 20.0 | 0.00 | 0.01 | 0.00 | 32 | 1018.7 |
| 20260504220017 | 65 | 270 | 9.0 | 19.0 | 0.00 | 0.01 | 0.00 | 33 | 1018.1 |
| 20260504215016 | 65 | 270 | 6.0 | 15.0 | 0.00 | 0.01 | 0.00 | 33 | 1018.4 |
| 20260504214016 | 64 | 270 | 7.0 | 16.0 | 0.00 | 0.01 | 0.00 | 32 | 1017.9 |
| 20260504213017 | 65 | 225 | 5.0 | 18.0 | 0.00 | 0.01 | 0.00 | 30 | 1018.1 |
| 20260504212017 | 65 | 248 | 7.0 | 17.0 | 0.00 | 0.01 | 0.00 | 30 | 1018.4 |
| 20260504211016 | 65 | 270 | 8.0 | 18.0 | 0.00 | 0.01 | 0.00 | 26 | 1018.3 |
| 20260504210016 | 66 | 270 | 8.0 | 17.0 | 0.00 | 0.02 | 0.00 | 26 | 1018.2 |
| 20260504205016 | 67 | 270 | 8.0 | 16.0 | 0.00 | 0.02 | 0.00 | 25 | 1018.6 |
| 20260504204016 | 67 | 270 | 8.0 | 22.0 | 0.00 | 0.02 | 0.00 | 25 | 1018.6 |
| 20260504203016 | 68 | 270 | 8.0 | 17.0 | 0.00 | 0.02 | 0.00 | 21 | 1018.4 |
| 20260504202016 | 69 | 270 | 9.0 | 19.0 | 0.00 | 0.02 | 0.00 | 21 | 1019.0 |
| 20260504201016 | 69 | 270 | 10.0 | 18.0 | 0.00 | 0.02 | 0.00 | 21 | 1018.4 |
| 20260504200016 | 69 | 270 | 7.0 | 16.0 | 0.00 | 0.03 | 0.00 | 23 | 1018.8 |
| 20260504195016 | 69 | 270 | 6.0 | 16.0 | 0.00 | 0.03 | 0.00 | 25 | 1018.9 |
| 20260504194016 | 69 | 270 | 4.0 | 12.0 | 0.00 | 0.03 | 0.00 | 25 | 1019.2 |
| 20260504193016 | 68 | 270 | 6.0 | 16.0 | 0.00 | 0.03 | 0.00 | 25 | 1019.3 |
| 20260504192016 | 68 | 270 | 5.0 | 15.0 | 0.00 | 0.03 | 0.00 | 26 | 1019.4 |
| 20260504191016 | 68 | 293 | 4.0 | 13.0 | 0.00 | 0.03 | 0.00 | 28 | 1020.2 |
| 20260504190016 | 67 | 270 | 5.0 | 13.0 | 0.00 | 0.03 | 0.00 | 26 | 1019.8 |
| 20260504185016 | 67 | 270 | 5.0 | 15.0 | 0.00 | 0.03 | 0.00 | 28 | 1019.9 |
| 20260504184016 | 66 | 270 | 5.0 | 16.0 | 0.00 | 0.03 | 0.00 | 27 | 1020.4 |
| 20260504183036 | 66 | 270 | 6.0 | 14.0 | 0.00 | 0.04 | 0.00 | 27 | 1020.8 |
| 20260504182056 | 66 | 293 | 7.0 | 14.0 | 0.00 | 0.04 | 0.00 | 27 | 1020.7 |
| 20260504181036 | 65 | 293 | 7.0 | 15.0 | 0.00 | 0.04 | 0.00 | 26 | 1019.9 |
| 20260504180016 | 66 | 270 | 7.0 | 16.0 | 0.00 | 0.04 | 0.00 | 27 | 1020.0 |
| 20260504175036 | 66 | 293 | 5.0 | 13.0 | 0.00 | 0.04 | 0.00 | 28 | 1019.9 |
| 20260504174016 | 66 | 270 | 5.0 | 16.0 | 0.00 | 0.05 | 0.00 | 28 | 1020.2 |
| 20260504173016 | 65 | 270 | 4.0 | 11.0 | 0.00 | 0.05 | 0.00 | 29 | 1020.2 |
| 20260504172016 | 64 | 293 | 4.0 | 12.0 | 0.00 | 0.05 | 0.00 | 28 | 1019.6 |
| 20260504171016 | 65 | 338 | 2.0 | 9.0 | 0.00 | 0.05 | 0.00 | 31 | 1019.8 |
| 20260504151016 | 61 | 270 | 5.0 | 17.0 | 0.00 | 0.06 | 0.00 | 35 | 1020.3 |
| 20260504141018 | 59 | 203 | 2.0 | 10.0 | 0.00 | 0.07 | 0.00 | 40 | 1021.9 |
| 20260504081017 | 45 | 0.0 | 2.0 | 0.00 | 0.08 | 0.00 | 39 | 1022.1 | |
| 20260504050016 | 47 | 0.0 | 5.0 | 0.00 | 0.09 | 0.09 | 42 | 1022.4 | |
| 20260504045016 | 47 | 0.0 | 3.0 | 0.00 | 0.09 | 0.09 | 42 | 1022.6 | |
| 20260504044016 | 47 | 0.0 | 2.0 | 0.00 | 0.09 | 0.09 | 43 | 1022.7 | |
| 20260504043015 | 47 | 0.0 | 1.0 | 0.00 | 0.10 | 0.09 | 43 | 1022.8 | |
| 20260504042015 | 47 | 0.0 | 3.0 | 0.00 | 0.10 | 0.09 | 44 | 1022.8 | |
| 20260504041015 | 47 | 0.0 | 0.0 | 0.00 | 0.10 | 0.09 | 44 | 1022.2 | |
| 20260504040015 | 48 | 0.0 | 1.0 | 0.00 | 0.10 | 0.09 | 45 | 1022.1 | |
| 20260504035016 | 48 | 0.0 | 2.0 | 0.00 | 0.10 | 0.09 | 45 | 1022.6 | |
| 20260504034018 | 48 | 0.0 | 3.0 | 0.00 | 0.10 | 0.09 | 47 | 1021.7 | |
| 20260504033018 | 49 | 0.0 | 3.0 | 0.00 | 0.10 | 0.09 | 48 | 1022.2 | |
| 20260504032017 | 51 | 0.0 | 0.0 | 0.00 | 0.10 | 0.09 | 48 | 1022.8 | |
| 20260504031018 | 50 | 0.0 | 1.0 | 0.00 | 0.10 | 0.09 | 48 | 1021.5 | |
| 20260504030017 | 50 | 0.0 | 2.0 | 0.00 | 0.10 | 0.09 | 49 | 1021.2 | |
| 20260504025017 | 51 | 0.0 | 1.0 | 0.00 | 0.11 | 0.09 | 51 | 1021.5 | |
| 20260504024018 | 52 | 0.0 | 2.0 | 0.00 | 0.11 | 0.09 | 53 | 1020.6 | |
| 20260504023018 | 53 | 0.0 | 1.0 | 0.00 | 0.11 | 0.09 | 56 | 1021.3 | |
| 20260504022038 | 55 | 0.0 | 1.0 | 0.00 | 0.11 | 0.09 | 55 | 1021.3 | |
| 20260504021017 | 55 | 0.0 | 6.0 | 0.00 | 0.11 | 0.09 | 55 | 1020.6 | |
| 20260504020017 | 56 | 0.0 | 3.0 | 0.00 | 0.11 | 0.09 | 55 | 1020.4 | |
| 20260504015017 | 56 | 0.0 | 2.0 | 0.00 | 0.11 | 0.09 | 55 | 1020.7 | |
| 20260504014017 | 57 | 203 | 1.0 | 4.0 | 0.00 | 0.11 | 0.09 | 53 | 1020.5 |
| 20260504013017 | 58 | 203 | 1.0 | 7.0 | 0.00 | 0.11 | 0.09 | 52 | 1020.5 |
| 20260504012017 | 58 | 203 | 1.0 | 4.0 | 0.00 | 0.11 | 0.09 | 53 | 1020.5 |
| 20260504011017 | 58 | 203 | 1.0 | 5.0 | 0.00 | 0.11 | 0.09 | 52 | 1020.7 |
| 20260504010017 | 59 | 203 | 2.0 | 5.0 | 0.00 | 0.11 | 0.09 | 52 | 1021.3 |
| 20260504005017 | 59 | 225 | 1.0 | 6.0 | 0.01 | 0.12 | 0.09 | 51 | 1021.4 |
| 20260504004017 | 59 | 203 | 2.0 | 6.0 | 0.01 | 0.12 | 0.09 | 51 | 1020.8 |
| 20260504003017 | 59 | 203 | 2.0 | 6.0 | 0.01 | 0.12 | 0.09 | 51 | 1020.9 |